Flag for Micronesia Weather past 2 weeks in Colonia, Yap, Micronesia

Now
78 °F

Overcast.


Feels Like: 81 °F
Forecast: 77 / 85 °F
Wind: 15 mph from Northeast

Location: Yap Island

Current Time: Feb 2, 2015 at 8:23:53 AM

Latest Report: Feb 2, 2015 at 7:58 AM


Visibility: 12 mi

Pressure: 29.89 "Hg

Humidity: 87%

Dew point: 74 °F

Location of ColoniaLocation

Historic Weather in Colonia — Graph

°F

Colonia temperature yesterday

Maximum temperature yesterday: 88 °F (at 1:53 PM)
Minimum temperature yesterday: 78 °F (at 8:52 PM)
Average temperature yesterday: 81 °F

Past Weeks' High & Low Weather Summary

 TemperatureHumidityPressure
High88 °F (Jan 23, 1:50 PM)95% (Jan 18, 6:58 AM)29.96 "Hg (Jan 18, 6:58 AM)
Low50 °F (Jan 21, 4:51 AM)23% (Jan 21, 4:51 AM)29.75 "Hg (Jan 27, 3:50 PM)
Average81 °F83%29.86 "Hg
* Reported Jan 18 6:58 AM — Feb 2 6:53 AM, Colonia, Weather by CustomWeather, © 2014

Note: Actual official high and low records may vary slightly from our data, if they occured in-between our weather recording intervals... More about our weather records

Advertising

Colonia weather history for previous 24 hours

 ConditionsComfort  
Time TempWeatherWind HumidityBarometerVisibility
6:53 AM
Feb 2
78 °FPartly cloudy.9 mph92%29.87 "Hg12 mi
5:52 AM79 °FPartly cloudy.9 mph87%29.85 "Hg12 mi
4:51 AM79 °FPartly cloudy.9 mph87%29.83 "Hg12 mi
3:54 AM79 °FPassing clouds.5 mph88%29.83 "Hg12 mi
2:52 AM79 °FPassing clouds.8 mph89%29.84 "Hg12 mi
1:52 AM80 °FPassing clouds.8 mph83%29.85 "Hg12 mi
12:53 AM79 °FPassing clouds.8 mph89%29.86 "Hg12 mi
11:52 PM
Feb 1
79 °FPassing clouds.7 mph88%29.87 "Hg12 mi
10:54 PM79 °FPartly cloudy.7 mph90%29.88 "Hg12 mi
9:52 PM80 °FSprinkles. Overcast.7 mph91%29.88 "Hg8 mi
8:52 PM78 °FSprinkles. Overcast.8 mph89%29.85 "Hg10 mi
7:51 PM80 °FBroken clouds.8 mph85%29.84 "Hg12 mi
6:51 PM80 °FCloudy.13 mph87%29.83 "Hg12 mi
5:50 PM80 °FBroken clouds.6 mph89%29.82 "Hg12 mi
4:50 PM81 °FScattered showers. Broken clouds.12 mph88%29.81 "Hg12 mi
3:54 PM85 °FBroken clouds.9 mph77%29.79 "Hg12 mi
1:53 PM88 °FBroken clouds.12 mph69%29.82 "Hg12 mi
12:53 PM88 °FBroken clouds.15 mph68%29.84 "Hg12 mi
11:53 AM88 °FPartly sunny.13 mph68%29.85 "Hg12 mi
10:53 AM86 °FPartly sunny.12 mph72%29.86 "Hg12 mi
9:53 AM85 °FPartly sunny.13 mph74%29.88 "Hg12 mi
8:53 AM83 °FPartly sunny.10 mph80%29.86 "Hg12 mi
Weather by CustomWeather, © 2014

See weather overviewHow to use our weather pages